User: anonymous   Login
Location: Gipe Farm
(40.9466°N, 95.5370°W)
Time: 22:17:35
(UTC-06:00)
Language:

Cosmos 2082 Rocket - Orbit

View from above orbital plane
View from above orbital plane
View from above satellite
View from above satellite

Ground track
Ground track

The orbit data is extracted from the following two-line orbital elements,

1 20625U 90046B   15027.54453847  .00000310  00000-0  18605-3 0  9211
2 20625 070.9992 178.4605 0014917 343.5987 080.7867 14.14554980274577
Epoch (UTC): 27 January 2015 13:04:08
Eccentricity: 0.0014917
inclination: 70.9992°
perigee height: 833 km
apogee height: 854 km
right ascension of ascending node: 178.4605°
argument of perigee: 343.5987°
revolutions per day: 14.14554980
mean anomaly at epoch: 80.7867°
orbit number at epoch: 27457

The dashed part of the orbit path shows where the satellite is in the earth's shadow,  

DLR